Total_Precipitation_Accumulation
0.44 0.36 0.46 0.52 0.48 0.53 0.72 0.69 0.61 0.32 0.26 0.27 0.27 0.29 0.31 0.35 0.35 0.38 0.43 0.49 0.50 0.50 0.53 0.57 0.53 0.57 0.65 0.75 0.78 0.79 0.82 0.95 1.11 1.18 1.32 1.40 1.40 1.41 1.42 1.42 1.32 1.29 1.27 1.24
0.48 0.25 0.35 0.42 0.35 0.37 0.42 0.39 0.36 0.24 0.22 0.19 0.22 0.25 0.28 0.32 0.36 0.39 0.45 0.49 0.49 0.48 0.48 0.50 0.52 0.55 0.58 0.64 0.70 0.76 0.80 0.82 0.96 1.12 1.26 1.38 1.41 1.44 1.43 1.44 1.42 1.34 1.29 1.26
0.85 0.38 0.66 0.77 0.43 0.40 0.41 0.39 0.39 0.41 0.34 0.22 0.19 0.22 0.30 0.35 0.37 0.40 0.45 0.49 0.46 0.46 0.46 0.48 0.49 0.51 0.55 0.59 0.65 0.68 0.67 0.68 0.78 0.94 1.10 1.23 1.32 1.39 1.49 1.48 1.44 1.39 1.30 1.24
1.32 1.00 1.35 0.71 0.33 0.33 0.42 0.47 0.44 0.43 0.36 0.32 0.30 0.28 0.30 0.39 0.45 0.43 0.46 0.48 0.45 0.45 0.46 0.49 0.49 0.49 0.54 0.57 0.56 0.59 0.60 0.58 0.61 0.72 0.87 1.04 1.21 1.29 1.38 1.48 1.48 1.40 1.31 1.24
1.80 1.43 0.87 0.40 0.30 0.44 0.52 0.55 0.48 0.43 0.34 0.31 0.28 0.26 0.28 0.34 0.45 0.51 0.53 0.49 0.45 0.45 0.45 0.44 0.46 0.48 0.49 0.52 0.55 0.54 0.54 0.55 0.54 0.58 0.69 0.85 1.01 1.14 1.23 1.34 1.39 1.36 1.28 1.17
1.97 1.53 0.84 0.46 0.29 0.32 0.45 0.63 0.43 0.41 0.41 0.37 0.35 0.38 0.39 0.39 0.44 0.48 0.45 0.42 0.42 0.41 0.40 0.42 0.45 0.46 0.46 0.48 0.51 0.53 0.51 0.50 0.50 0.53 0.58 0.68 0.82 0.97 1.13 1.25 1.32 1.32 1.28 1.17
1.55 1.31 0.69 0.41 0.29 0.28 0.62 0.72 0.42 0.42 0.47 0.45 0.48 0.50 0.45 0.39 0.39 0.42 0.40 0.38 0.37 0.35 0.35 0.41 0.45 0.47 0.50 0.48 0.49 0.50 0.48 0.48 0.49 0.49 0.51 0.59 0.72 0.85 1.04 1.18 1.29 1.28 1.21 1.19
1.02 1.23 0.79 0.42 0.38 0.60 0.74 0.47 0.41 0.40 0.43 0.45 0.43 0.41 0.40 0.38 0.36 0.35 0.37 0.36 0.37 0.37 0.37 0.40 0.42 0.47 0.53 0.50 0.48 0.47 0.45 0.45 0.45 0.45 0.47 0.53 0.66 0.80 0.96 1.12 1.25 1.26 1.19 1.21
0.76 0.73 0.54 0.49 0.58 0.60 0.53 0.48 0.41 0.41 0.39 0.41 0.43 0.42 0.40 0.36 0.34 0.34 0.36 0.35 0.36 0.39 0.40 0.40 0.40 0.44 0.53 0.52 0.48 0.45 0.44 0.45 0.45 0.45 0.48 0.50 0.59 0.74 0.95 1.06 1.17 1.24 1.15 1.16
0.58 0.45 0.36 0.35 0.38 0.41 0.42 0.43 0.39 0.39 0.41 0.40 0.42 0.40 0.35 0.30 0.31 0.31 0.33 0.34 0.33 0.35 0.39 0.44 0.48 0.48 0.48 0.50 0.49 0.43 0.44 0.45 0.44 0.47 0.52 0.51 0.56 0.67 0.86 1.02 1.12 1.22 1.15 1.09
0.48 0.37 0.30 0.26 0.27 0.31 0.32 0.31 0.29 0.31 0.36 0.39 0.38 0.34 0.30 0.28 0.26 0.28 0.32 0.33 0.32 0.34 0.39 0.48 0.55 0.51 0.46 0.48 0.50 0.46 0.45 0.48 0.47 0.48 0.52 0.56 0.61 0.67 0.78 0.90 1.14 1.34 1.26 1.19
0.47 0.37 0.41 0.33 0.26 0.25 0.26 0.26 0.27 0.27 0.30 0.32 0.32 0.30 0.25 0.24 0.25 0.27 0.29 0.29 0.31 0.32 0.36 0.44 0.51 0.51 0.47 0.47 0.49 0.49 0.48 0.49 0.51 0.54 0.55 0.55 0.63 0.73 0.84 0.90 1.00 1.06 1.15 1.24
0.36 0.31 0.31 0.29 0.26 0.24 0.24 0.23 0.24 0.26 0.27 0.29 0.27 0.25 0.22 0.22 0.24 0.28 0.30 0.29 0.30 0.31 0.34 0.40 0.45 0.47 0.47 0.49 0.52 0.53 0.54 0.53 0.55 0.56 0.54 0.55 0.61 0.72 0.86 0.93 0.99 1.01 1.05 1.15
0.24 0.25 0.27 0.26 0.28 0.24 0.22 0.21 0.21 0.22 0.24 0.25 0.26 0.25 0.22 0.22 0.24 0.28 0.30 0.30 0.30 0.29 0.32 0.36 0.41 0.47 0.47 0.48 0.53 0.55 0.56 0.59 0.63 0.60 0.59 0.60 0.66 0.76 0.87 0.98 1.04 1.07 1.11 1.21
0.20 0.24 0.28 0.25 0.23 0.22 0.21 0.22 0.22 0.24 0.24 0.25 0.25 0.27 0.26 0.25 0.25 0.28 0.31 0.31 0.32 0.31 0.32 0.32 0.37 0.46 0.48 0.48 0.53 0.55 0.55 0.58 0.64 0.66 0.65 0.67 0.72 0.81 0.90 0.98 1.04 1.09 1.15 1.33
0.20 0.20 0.21 0.21 0.22 0.22 0.23 0.23 0.24 0.27 0.28 0.28 0.29 0.31 0.31 0.30 0.29 0.31 0.33 0.32 0.34 0.34 0.32 0.31 0.35 0.42 0.49 0.52 0.55 0.55 0.56 0.64 0.70 0.72 0.71 0.73 0.77 0.86 0.94 1.01 1.05 1.10 1.15 1.24
0.30 0.27 0.24 0.24 0.24 0.24 0.25 0.27 0.28 0.30 0.31 0.32 0.34 0.36 0.36 0.33 0.31 0.32 0.33 0.33 0.35 0.34 0.32 0.31 0.34 0.40 0.46 0.49 0.55 0.58 0.61 0.63 0.70 0.72 0.72 0.77 0.82 0.90 0.97 1.05 1.07 1.07 1.09 1.17
0.34 0.34 0.32 0.33 0.32 0.29 0.26 0.26 0.27 0.29 0.32 0.35 0.37 0.37 0.38 0.36 0.33 0.33 0.35 0.35 0.36 0.36 0.32 0.31 0.34 0.41 0.44 0.47 0.54 0.58 0.63 0.66 0.68 0.70 0.75 0.82 0.89 0.94 1.01 1.07 1.06 1.05 1.08 1.17
0.29 0.29 0.29 0.30 0.32 0.33 0.30 0.27 0.26 0.27 0.29 0.32 0.36 0.39 0.39 0.37 0.34 0.35 0.37 0.38 0.39 0.40 0.37 0.36 0.40 0.43 0.44 0.50 0.61 0.60 0.65 0.70 0.74 0.75 0.77 0.87 0.93 0.90 0.97 1.04 1.06 1.05 1.06 1.08
0.26 0.26 0.27 0.28 0.29 0.32 0.32 0.27 0.25 0.25 0.27 0.30 0.35 0.36 0.38 0.38 0.37 0.38 0.39 0.41 0.43 0.45 0.43 0.45 0.45 0.47 0.50 0.57 0.65 0.64 0.68 0.73 0.80 0.84 0.85 0.85 0.90 0.93 0.95 1.02 1.08 1.07 1.04 1.03
0.29 0.29 0.30 0.31 0.30 0.28 0.30 0.30 0.29 0.29 0.28 0.30 0.35 0.39 0.41 0.42 0.39 0.39 0.43 0.45 0.44 0.46 0.47 0.49 0.51 0.57 0.64 0.70 0.71 0.69 0.72 0.77 0.84 0.90 0.92 0.93 0.94 0.96 0.98 1.03 1.08 1.05 1.03 1.02
0.35 0.35 0.35 0.35 0.33 0.32 0.32 0.34 0.35 0.36 0.34 0.33 0.35 0.38 0.42 0.42 0.38 0.37 0.39 0.46 0.49 0.53 0.53 0.51 0.58 0.70 0.77 0.79 0.73 0.71 0.73 0.77 0.86 0.91 0.93 0.97 1.00 1.03 1.02 1.03 1.06 1.04 1.01 1.02
0.43 0.43 0.42 0.41 0.40 0.40 0.37 0.38 0.41 0.43 0.43 0.42 0.43 0.45 0.45 0.44 0.43 0.46 0.47 0.46 0.51 0.59 0.61 0.60 0.71 0.81 0.85 0.81 0.77 0.76 0.78 0.81 0.87 0.94 0.97 1.00 1.02 1.03 1.04 1.04 1.03 1.03 1.05 1.05
0.47 0.47 0.47 0.45 0.43 0.42 0.44 0.45 0.46 0.48 0.50 0.51 0.50 0.52 0.54 0.53 0.49 0.48 0.55 0.60 0.63 0.68 0.68 0.69 0.79 0.88 0.90 0.85 0.82 0.83 0.87 0.89 0.94 1.01 1.01 1.02 1.05 1.05 1.03 1.04 1.04 1.01 1.00 1.01
0.50 0.50 0.48 0.47 0.47 0.50 0.54 0.55 0.54 0.53 0.52 0.54 0.52 0.53 0.56 0.61 0.63 0.60 0.62 0.66 0.68 0.71 0.69 0.70 0.79 0.87 0.87 0.87 0.86 0.88 0.92 0.97 1.08 1.15 1.11 1.07 1.05 1.06 1.04 1.04 1.02 1.01 1.00 1.01
0.53 0.55 0.57 0.59 0.62 0.64 0.65 0.64 0.63 0.61 0.59 0.58 0.56 0.58 0.61 0.63 0.66 0.67 0.70 0.70 0.71 0.73 0.72 0.71 0.75 0.82 0.87 0.90 0.89 0.90 0.96 1.04 1.12 1.13 1.06 1.05 1.04 1.04 1.05 1.03 1.00 0.98 0.98 1.00
0.53 0.55 0.58 0.58 0.60 0.65 0.70 0.72 0.72 0.72 0.70 0.68 0.68 0.67 0.67 0.69 0.70 0.72 0.72 0.71 0.71 0.73 0.76 0.79 0.83 0.89 0.97 0.97 0.97 0.96 1.01 1.05 1.07 1.10 1.09 1.07 1.05 1.04 1.02 1.02 1.00 1.01 1.00 0.98